SCP
-0 -0 -0 -0 -0 -0 -0 -0 -0 -0 -0 -0 -0 -0 -0 -0 -0 -0 -0 -0 0 -0 0 0 -0 -0 -0 -0 -0 -0 -0 -0 -0 -0 -0 -0 -0 -0 -0 -0 -0 0 -0
0 -0 -0 -0 -0 -0 -0 -0 -0 -0 -0 -0 -0 -0 -0 -0 -0 -0 -0 -0 -0 0 -0 -0 -0 -0 -0 -0 -0 -0 -0 -0 -0 -0 -0 -0 -0 -0 -0 -0 -0 -0 -0
-0 -0 0 -0 -0 -0 -0 -0 -0 -0 -0 -0 -0 -0 -0 -0 -0 -0 -0 -0 -0 -0 -0 -0 -0 -0 -0 -0 -0 -0 -0 -0 -0 -0 -0 0 0 -0 -0 -0 -0 -0 -0
-0 -0 -0 -0 -0 -0 -0 -0 -0 -0 -0 -0 -0 -0 -0 -0 -0 -0 -0 -0 -0 -0 -0 -0 -0 -0 -0 -0 -0 -0 -0 -0 -0 -0 0 0 0 -0 -0 -0 -0 -0 -0
-0 -0 -0 -0 -0 -0 -0 -0 -0 -0 -0 -0 -0 -0 -0 -0 -0 -0 -0 -0 -0 -0 -0 -0 -0 -0 -0 -0 -0 -0 -0 -0 -0 0 0 0 0 0 -0 -0 -0 -0 -0
-0 -0 -0 -0 -0 -0 -0 -0 -0 -0 -0 -0 -0 -0 -0 -0 -0 -0 -0 -0 -0 -0 -0 -0 -0 -0 -0 -0 -0 -0 -0 -0 -0 0 0 0 0 -0 -0 -0 -0 0 0
-0 -0 -0 -0 -0 -0 -0 -0 -0 -0 -0 -0 -0 -0 -0 -0 -0 -0 -0 -0 -0 -0 0 0 -0 -0 -0 -0 -0 -0 -0 -0 0 0 0 0 0 -0 -0 -0 -0 0 -0
0 -0 -0 -0 -0 -0 -0 -0 -0 -0 -0 -0 -0 -0 -0 -0 -0 -0 -0 -0 -0 -0 -0 -0 0 0 0 0 0 0 0 0 0 0 0 0 0 0 0 0 0 0 0
0 0 0 0 -0 -0 -0 -0 -0 -0 -0 -0 -0 -0 -0 -0 -0 -0 -0 -0 -0 -0 -0 -0 -0 -0 -0 0 0 0 0 0 0 0 0 0 0 0 0 0 0 0 0
0 0 0 0 0 0 0 0 0 0 -0 -0 -0 -0 0 0 0 0 0 0 0 -0 -0 -0 -0 0 0 0 0 0 0 0 0 0 0 0 0 0 0 0 0 0 0
0 0 0 0 0 0 0 0 0 0 -0 0 0 0 0 0 0 0 0 0 0 0 0 0 0 0 0 0 0 0 0 0 0 0 0 0 0 0 0 0 0 0 0
0 0 0 0 0 0 0 0 0 0 0 0 0 0 0 0 0 0 0 0 -0 0 0 0 0 0 0 0 0 0 0 0 0 0 0 0 0 0 0 0 0 0 0
0 0 0 0 0 0 0 0 0 0 0 0 0 0 0 0 0 0 0 0 0 0 0 0 0 0 0 0 0 0 0 0 0 0 0 0 0 0 0 0 0 0 0
0 0 0 0 0 0 0 0 0 0 0 0 0 0 0 0 0 0 0 0 0 0 0 0 0 0 0 0 0 0 0 0 0 0 0 0 0 0 0 0 0 0 0
0 0 0 0 0 0 0 0 0 0 0 0 0 0 0 0 0 0 0 0 0 0 0 0 0 0 0 0 0 0 0 0 0 0 0 0 0 0 0 0 0 0 0
0 0 0 0 0 0 0 0 0 0 0 0 0 0 0 0 0 0 0 0 0 0 0 0 0 0 0 0 0 0 0 0 0 0 0 0 0 0 0 0 0 0 0
0 0 0 0 0 0 0 0 0 0 0 0 0 0 0 0 0 0 0 0 0 0 0 0 0 0 0 0 0 0 0 0 0 0 0 0 0 0 0 0 0 0 0
0 0 0 0 0 0 0 0 0 0 0 0 0 0 0 0 0 0 0 0 0 0 0 0 0 0 0 0 0 0 0 0 0 0 0 0 0 0 0 0 0 0 0
0 0 0 0 0 0 0 0 0 0 0 0 0 0 0 0 0 0 0 0 0 0 0 0 0 0 0 0 0 0 0 0 0 0 0 0 0 0 0 0 0 0 0
0 0 0 0 0 0 0 0 0 0 0 0 0 0 0 0 0 0 0 0 0 0 0 0 0 0 0 0 0 0 0 0 0 0 0 0 0 0 0 0 0 0 0
0 0 0 0 0 0 0 0 0 0 0 0 0 0 0 0 0 0 0 0 0 0 0 0 0 0 0 0 0 0 0 0 0 0 0 0 0 0 0 0 0 -0 0
0 0 0 0 0 0 0 0 0 0 0 0 0 0 0 0 0 0 0 0 0 0 0 0 0 0 0 0 0 0 0 0 0 0 0 0 0 0 0 0 0 0 0
0 0 0 0 0 0 0 0 0 0 0 0 0 0 0 0 0 0 0 0 0 0 0 0 0 0 0 0 0 0 0 0 0 0 0 0 0 0 0 0 0 0 -0
0 0 0 0 0 0 0 0 0 0 0 0 0 0 0 0 0 0 0 0 0 0 0 0 0 0 0 0 0 0 0 0 0 0 0 0 0 0 -0 -0 -0 -0 -0
0 0 0 0 0 0 0 0 0 0 0 0 0 0 0 0 0 0 0 0 0 0 0 0 0 0 0 0 0 0 0 0 0 0 0 0 0 0 -0 -0 -0 -0 -0
0 0 0 0 0 0 0 0 0 0 0 0 0 0 0 0 0 0 0 0 0 0 0 0 0 0 0 0 0 0 0 0 -0 -0 -0 0 0 0 0 0 -0 -0 -0
Wind_Speed_500mb
26 27 25 26 26 25 23 19 21 20 20 20 21 22 22 19 18 15 15 16 20 19 20 27 26 23 22 25 21 22 19 20 19 16 17 17 20 23 25 25 31 28 25
27 31 29 28 27 25 21 20 21 19 17 15 18 20 24 24 21 18 16 18 20 19 19 19 23 22 22 16 22 22 25 25 27 24 20 16 17 19 19 18 22 31 29
27 34 32 29 26 22 19 19 19 20 16 13 15 19 23 26 26 21 20 21 21 20 21 20 21 21 17 17 22 23 24 26 27 29 25 19 19 19 17 16 14 15 23
29 34 32 30 26 22 19 18 17 16 13 10 13 17 23 25 28 26 23 23 23 23 23 22 19 15 12 12 14 17 22 25 27 25 24 24 23 21 19 18 17 14 17
34 32 31 29 26 24 21 19 17 14 14 8 12 15 19 23 26 26 25 24 24 24 25 23 20 16 14 11 13 17 21 23 24 23 23 24 23 22 20 20 18 16 14
29 32 30 28 25 23 21 19 17 15 16 12 10 10 14 17 21 24 25 25 25 26 25 23 22 19 14 11 12 16 20 21 20 21 22 24 25 25 23 22 20 19 16
31 32 31 27 22 19 22 20 18 14 15 14 11 7 11 15 19 21 23 24 24 23 24 23 21 17 14 10 11 15 17 19 20 21 23 24 27 26 26 26 25 23 21
33 31 25 29 19 16 22 22 19 16 16 16 13 7 8 12 15 18 20 21 22 22 21 21 21 18 15 12 11 13 15 16 17 18 20 22 25 24 24 24 24 23 22
28 30 24 23 28 24 20 23 21 18 18 18 16 9 7 9 13 17 19 20 20 19 19 21 19 16 14 12 10 11 12 12 13 15 16 17 20 26 25 25 24 24 25
33 32 28 28 29 29 26 25 23 21 20 20 20 16 10 10 12 17 18 22 23 22 20 21 23 21 14 11 9 10 8 8 10 12 13 15 17 19 22 27 28 28 27
43 40 38 38 34 32 30 27 23 22 21 22 24 19 10 10 7 9 12 19 22 27 28 22 23 25 23 17 11 8 7 7 8 8 9 13 14 15 16 18 21 32 34
48 48 43 37 37 37 34 31 28 26 27 27 28 23 17 12 8 4 7 13 23 24 25 21 23 25 24 21 17 9 5 4 4 5 8 11 12 13 13 15 17 18 21
48 49 46 40 43 39 39 35 35 31 29 30 29 26 22 18 15 12 11 12 7 15 20 17 16 19 20 21 19 11 4 2 4 7 10 11 12 14 16 17 20 21 22
48 47 48 43 46 39 37 37 38 35 36 36 32 30 27 25 22 21 19 15 10 5 14 14 11 17 18 22 14 6 4 6 7 8 12 9 14 28 38 40 39 38 38
50 49 49 48 50 47 40 44 40 40 40 38 35 34 33 31 28 31 27 20 12 8 11 9 14 16 21 14 9 9 9 11 12 12 12 10 7 7 12 16 25 38 23
52 53 56 55 55 52 48 46 49 48 43 41 39 39 35 36 35 43 34 23 17 12 5 11 12 14 9 13 16 19 21 21 22 23 23 21 17 16 20 20 18 17 22
55 56 57 60 62 57 53 50 54 48 47 45 46 43 44 44 41 34 31 23 15 15 5 11 8 5 8 15 20 21 25 32 33 33 33 31 29 29 27 26 27 30 31
53 54 55 57 62 59 57 56 56 54 52 52 51 48 49 48 50 46 33 24 17 15 8 6 2 8 13 16 22 28 28 27 28 27 26 25 26 27 28 31 32 34 35
50 48 48 49 54 58 52 54 53 51 53 54 57 54 53 53 52 32 22 16 20 18 10 6 13 14 18 23 25 25 23 21 20 18 17 20 26 31 36 39 40 40 39
53 50 49 48 52 54 53 54 54 53 46 45 56 57 51 47 37 26 19 23 27 17 14 16 18 21 22 22 22 19 17 15 14 17 17 19 30 37 42 42 42 41 42
55 53 50 47 49 56 57 60 63 63 53 51 43 45 46 39 33 28 27 30 23 20 22 23 21 22 23 19 16 13 7 1 10 19 17 22 34 44 44 46 49 49 48
55 53 51 48 49 53 53 59 59 59 68 50 51 47 42 45 35 35 33 31 28 27 29 28 22 23 23 19 10 12 7 5 11 17 6 28 40 44 45 49 51 53 56
62 58 54 51 49 53 59 59 59 70 64 60 61 53 48 44 43 37 35 33 33 29 27 26 22 19 19 22 15 7 4 2 14 6 22 34 43 47 51 54 56 60 61
65 57 53 53 55 57 59 65 65 67 65 65 60 53 54 48 44 42 38 36 32 27 22 19 18 16 16 16 15 18 15 14 14 12 24 36 48 54 59 58 64 67 66
64 60 56 55 56 55 59 63 78 71 68 69 68 63 52 49 47 44 41 37 30 24 20 17 17 15 14 15 18 20 22 23 29 27 34 58 57 58 59 63 64 66 63
67 61 58 56 60 59 71 75 78 77 65 77 72 68 64 59 56 49 42 35 29 25 21 19 17 16 16 16 19 20 23 27 33 37 46 55 58 56 58 60 66 67 67
Wind_Direction_500mb
168 168 160 153 153 147 141 129 119 113 122 114 93 82 79 61 63 69 68 67 61 60 63 76 77 80 80 71 64 70 74 74 65 66 69 77 80 77 73 69 68 62 59
169 168 167 161 156 152 145 134 128 126 124 105 87 73 58 54 56 69 76 66 64 65 72 77 82 89 88 86 63 60 57 66 64 60 59 58 63 63 62 63 69 67 60
173 171 171 169 163 157 149 143 139 135 134 120 88 70 59 51 53 66 64 62 58 57 58 68 85 97 97 96 76 71 61 61 54 50 49 55 59 57 56 59 61 75 70
175 172 172 173 168 163 158 154 147 143 140 132 93 70 54 52 58 62 62 56 54 54 60 65 75 94 102 91 77 57 50 44 44 42 46 51 57 57 53 53 55 62 76
172 172 173 175 174 171 170 167 160 157 150 137 109 74 57 54 58 63 63 63 60 60 61 65 75 91 98 89 67 54 42 46 38 36 44 48 51 56 53 53 56 51 55
169 175 176 176 179 181 178 176 172 167 167 167 132 94 75 69 65 62 62 60 57 59 65 67 72 88 93 78 68 51 36 36 40 43 45 46 45 44 46 44 45 46 41
173 184 179 178 181 188 187 184 182 180 179 181 167 128 83 75 72 69 65 63 62 64 66 70 72 77 78 59 42 36 34 41 40 41 43 42 43 39 40 40 38 37 35
174 186 200 184 193 199 192 191 190 190 191 191 186 159 100 84 81 76 72 69 63 62 67 71 71 69 68 61 42 40 34 39 40 41 45 41 43 39 39 39 38 37 36
175 183 185 192 200 208 208 201 199 197 197 197 194 180 131 97 78 70 69 69 69 65 61 60 62 62 60 57 47 40 38 34 37 42 43 41 41 42 39 36 35 35 36
184 183 195 202 212 216 222 212 210 204 201 198 193 188 178 119 73 58 53 62 71 67 64 66 61 55 47 39 41 41 39 37 38 41 41 43 39 33 34 37 33 28 31
187 189 194 199 215 224 229 218 213 206 205 199 195 200 158 140 111 61 32 54 58 55 52 52 46 39 36 29 16 14 19 19 31 35 36 39 35 34 31 26 36 41 30
199 199 199 207 205 219 228 211 211 208 208 206 209 209 203 196 182 212 111 65 47 28 26 33 27 16 13 13 10 355 356 26 29 36 36 37 33 27 22 19 18 20 41
210 213 212 203 207 211 220 212 205 214 221 218 220 219 209 208 216 180 172 158 100 49 6 7 7 354 353 356 351 348 347 21 44 52 55 50 43 32 20 15 14 12 11
216 216 213 208 207 207 210 219 209 208 221 218 219 222 222 214 210 203 196 194 160 118 348 335 327 336 341 338 340 0 14 35 43 57 66 53 43 53 55 51 45 38 35
220 218 217 215 207 208 213 217 220 215 221 220 225 222 212 217 221 211 205 198 196 190 352 318 329 333 339 352 42 68 77 74 70 76 82 80 86 44 31 34 44 50 27
222 219 218 218 220 217 212 218 218 216 221 224 217 224 232 229 245 218 200 206 215 191 347 283 311 340 9 60 79 86 87 82 81 86 88 79 67 57 53 48 40 22 8
228 227 224 224 228 223 209 213 219 221 225 225 226 229 225 223 219 204 196 204 207 198 242 270 333 38 100 96 100 99 97 94 92 91 89 83 73 63 52 41 27 17 11
233 232 229 224 223 219 212 215 222 224 223 231 222 225 228 212 218 205 203 208 204 212 203 254 43 133 126 118 112 106 102 98 91 83 78 66 51 35 20 10 1 353 349
231 225 222 218 216 212 207 211 214 217 218 226 229 232 224 212 206 189 200 215 205 202 207 226 174 157 138 127 119 111 102 92 80 63 43 33 23 9 0 355 350 344 338
224 222 220 219 215 206 200 207 212 205 198 226 240 211 191 198 184 197 224 234 201 207 197 185 173 149 142 133 126 121 113 93 67 26 6 13 2 355 354 350 346 345 342
220 221 221 219 208 201 204 207 214 221 216 201 201 213 206 203 216 212 218 203 189 212 177 157 150 143 137 140 141 141 139 0 336 339 349 1 354 353 349 346 344 342 341
222 221 219 217 214 207 209 210 209 218 206 213 209 220 212 198 206 198 191 184 180 183 160 146 136 139 137 158 177 183 189 257 311 324 356 350 346 348 347 346 344 342 341
220 219 218 216 215 210 205 207 209 202 225 201 183 197 181 184 183 180 177 176 171 165 157 146 137 131 121 114 114 132 105 60 344 322 318 338 343 348 349 347 343 343 342
219 217 217 214 212 209 212 214 221 207 188 190 186 180 177 179 173 172 174 171 169 161 150 134 115 104 92 89 82 66 58 37 13 335 331 338 349 353 351 348 344 344 342
217 216 213 211 208 207 204 205 196 195 202 189 181 176 180 176 174 174 174 170 166 155 146 129 114 102 86 67 54 50 32 20 9 1 344 344 347 352 349 344 342 343 343
213 212 212 210 207 207 212 213 212 203 200 185 183 178 174 177 176 175 172 169 164 156 142 131 118 103 84 66 57 45 32 24 12 6 354 345 342 341 342 343 341 343 339
Wind_Speed_850mb
26 27 25 26 26 25 23 19 21 20 20 20 21 22 22 19 18 15 15 16 20 19 20 27 26 23 22 25 21 22 19 20 19 16 17 17 20 23 25 25 31 28 25
27 31 29 28 27 25 21 20 21 19 17 15 18 20 24 24 21 18 16 18 20 19 19 19 23 22 22 16 22 22 25 25 27 24 20 16 17 19 19 18 22 31 29
27 34 32 29 26 22 19 19 19 20 16 13 15 19 23 26 26 21 20 21 21 20 21 20 21 21 17 17 22 23 24 26 27 29 25 19 19 19 17 16 14 15 23
29 34 32 30 26 22 19 18 17 16 13 10 13 17 23 25 28 26 23 23 23 23 23 22 19 15 12 12 14 17 22 25 27 25 24 24 23 21 19 18 17 14 17
34 32 31 29 26 24 21 19 17 14 14 8 12 15 19 23 26 26 25 24 24 24 25 23 20 16 14 11 13 17 21 23 24 23 23 24 23 22 20 20 18 16 14
29 32 30 28 25 23 21 19 17 15 16 12 10 10 14 17 21 24 25 25 25 26 25 23 22 19 14 11 12 16 20 21 20 21 22 24 25 25 23 22 20 19 16
31 32 31 27 22 19 22 20 18 14 15 14 11 7 11 15 19 21 23 24 24 23 24 23 21 17 14 10 11 15 17 19 20 21 23 24 27 26 26 26 25 23 21
33 31 25 29 19 16 22 22 19 16 16 16 13 7 8 12 15 18 20 21 22 22 21 21 21 18 15 12 11 13 15 16 17 18 20 22 25 24 24 24 24 23 22
28 30 24 23 28 24 20 23 21 18 18 18 16 9 7 9 13 17 19 20 20 19 19 21 19 16 14 12 10 11 12 12 13 15 16 17 20 26 25 25 24 24 25
33 32 28 28 29 29 26 25 23 21 20 20 20 16 10 10 12 17 18 22 23 22 20 21 23 21 14 11 9 10 8 8 10 12 13 15 17 19 22 27 28 28 27
43 40 38 38 34 32 30 27 23 22 21 22 24 19 10 10 7 9 12 19 22 27 28 22 23 25 23 17 11 8 7 7 8 8 9 13 14 15 16 18 21 32 34
48 48 43 37 37 37 34 31 28 26 27 27 28 23 17 12 8 4 7 13 23 24 25 21 23 25 24 21 17 9 5 4 4 5 8 11 12 13 13 15 17 18 21
48 49 46 40 43 39 39 35 35 31 29 30 29 26 22 18 15 12 11 12 7 15 20 17 16 19 20 21 19 11 4 2 4 7 10 11 12 14 16 17 20 21 22
48 47 48 43 46 39 37 37 38 35 36 36 32 30 27 25 22 21 19 15 10 5 14 14 11 17 18 22 14 6 4 6 7 8 12 9 14 28 38 40 39 38 38
50 49 49 48 50 47 40 44 40 40 40 38 35 34 33 31 28 31 27 20 12 8 11 9 14 16 21 14 9 9 9 11 12 12 12 10 7 7 12 16 25 38 23
52 53 56 55 55 52 48 46 49 48 43 41 39 39 35 36 35 43 34 23 17 12 5 11 12 14 9 13 16 19 21 21 22 23 23 21 17 16 20 20 18 17 22
55 56 57 60 62 57 53 50 54 48 47 45 46 43 44 44 41 34 31 23 15 15 5 11 8 5 8 15 20 21 25 32 33 33 33 31 29 29 27 26 27 30 31
53 54 55 57 62 59 57 56 56 54 52 52 51 48 49 48 50 46 33 24 17 15 8 6 2 8 13 16 22 28 28 27 28 27 26 25 26 27 28 31 32 34 35
50 48 48 49 54 58 52 54 53 51 53 54 57 54 53 53 52 32 22 16 20 18 10 6 13 14 18 23 25 25 23 21 20 18 17 20 26 31 36 39 40 40 39
53 50 49 48 52 54 53 54 54 53 46 45 56 57 51 47 37 26 19 23 27 17 14 16 18 21 22 22 22 19 17 15 14 17 17 19 30 37 42 42 42 41 42
55 53 50 47 49 56 57 60 63 63 53 51 43 45 46 39 33 28 27 30 23 20 22 23 21 22 23 19 16 13 7 1 10 19 17 22 34 44 44 46 49 49 48
55 53 51 48 49 53 53 59 59 59 68 50 51 47 42 45 35 35 33 31 28 27 29 28 22 23 23 19 10 12 7 5 11 17 6 28 40 44 45 49 51 53 56
62 58 54 51 49 53 59 59 59 70 64 60 61 53 48 44 43 37 35 33 33 29 27 26 22 19 19 22 15 7 4 2 14 6 22 34 43 47 51 54 56 60 61
65 57 53 53 55 57 59 65 65 67 65 65 60 53 54 48 44 42 38 36 32 27 22 19 18 16 16 16 15 18 15 14 14 12 24 36 48 54 59 58 64 67 66
64 60 56 55 56 55 59 63 78 71 68 69 68 63 52 49 47 44 41 37 30 24 20 17 17 15 14 15 18 20 22 23 29 27 34 58 57 58 59 63 64 66 63
67 61 58 56 60 59 71 75 78 77 65 77 72 68 64 59 56 49 42 35 29 25 21 19 17 16 16 16 19 20 23 27 33 37 46 55 58 56 58 60 66 67 67
Wind_Direction_850mb
168 168 160 153 153 147 141 129 119 113 122 114 93 82 79 61 63 69 68 67 61 60 63 76 77 80 80 71 64 70 74 74 65 66 69 77 80 77 73 69 68 62 59
169 168 167 161 156 152 145 134 128 126 124 105 87 73 58 54 56 69 76 66 64 65 72 77 82 89 88 86 63 60 57 66 64 60 59 58 63 63 62 63 69 67 60
173 171 171 169 163 157 149 143 139 135 134 120 88 70 59 51 53 66 64 62 58 57 58 68 85 97 97 96 76 71 61 61 54 50 49 55 59 57 56 59 61 75 70
175 172 172 173 168 163 158 154 147 143 140 132 93 70 54 52 58 62 62 56 54 54 60 65 75 94 102 91 77 57 50 44 44 42 46 51 57 57 53 53 55 62 76
172 172 173 175 174 171 170 167 160 157 150 137 109 74 57 54 58 63 63 63 60 60 61 65 75 91 98 89 67 54 42 46 38 36 44 48 51 56 53 53 56 51 55
169 175 176 176 179 181 178 176 172 167 167 167 132 94 75 69 65 62 62 60 57 59 65 67 72 88 93 78 68 51 36 36 40 43 45 46 45 44 46 44 45 46 41
173 184 179 178 181 188 187 184 182 180 179 181 167 128 83 75 72 69 65 63 62 64 66 70 72 77 78 59 42 36 34 41 40 41 43 42 43 39 40 40 38 37 35
174 186 200 184 193 199 192 191 190 190 191 191 186 159 100 84 81 76 72 69 63 62 67 71 71 69 68 61 42 40 34 39 40 41 45 41 43 39 39 39 38 37 36
175 183 185 192 200 208 208 201 199 197 197 197 194 180 131 97 78 70 69 69 69 65 61 60 62 62 60 57 47 40 38 34 37 42 43 41 41 42 39 36 35 35 36
184 183 195 202 212 216 222 212 210 204 201 198 193 188 178 119 73 58 53 62 71 67 64 66 61 55 47 39 41 41 39 37 38 41 41 43 39 33 34 37 33 28 31
187 189 194 199 215 224 229 218 213 206 205 199 195 200 158 140 111 61 32 54 58 55 52 52 46 39 36 29 16 14 19 19 31 35 36 39 35 34 31 26 36 41 30
199 199 199 207 205 219 228 211 211 208 208 206 209 209 203 196 182 212 111 65 47 28 26 33 27 16 13 13 10 355 356 26 29 36 36 37 33 27 22 19 18 20 41
210 213 212 203 207 211 220 212 205 214 221 218 220 219 209 208 216 180 172 158 100 49 6 7 7 354 353 356 351 348 347 21 44 52 55 50 43 32 20 15 14 12 11
216 216 213 208 207 207 210 219 209 208 221 218 219 222 222 214 210 203 196 194 160 118 348 335 327 336 341 338 340 0 14 35 43 57 66 53 43 53 55 51 45 38 35
220 218 217 215 207 208 213 217 220 215 221 220 225 222 212 217 221 211 205 198 196 190 352 318 329 333 339 352 42 68 77 74 70 76 82 80 86 44 31 34 44 50 27
222 219 218 218 220 217 212 218 218 216 221 224 217 224 232 229 245 218 200 206 215 191 347 283 311 340 9 60 79 86 87 82 81 86 88 79 67 57 53 48 40 22 8
228 227 224 224 228 223 209 213 219 221 225 225 226 229 225 223 219 204 196 204 207 198 242 270 333 38 100 96 100 99 97 94 92 91 89 83 73 63 52 41 27 17 11
233 232 229 224 223 219 212 215 222 224 223 231 222 225 228 212 218 205 203 208 204 212 203 254 43 133 126 118 112 106 102 98 91 83 78 66 51 35 20 10 1 353 349
231 225 222 218 216 212 207 211 214 217 218 226 229 232 224 212 206 189 200 215 205 202 207 226 174 157 138 127 119 111 102 92 80 63 43 33 23 9 0 355 350 344 338
224 222 220 219 215 206 200 207 212 205 198 226 240 211 191 198 184 197 224 234 201 207 197 185 173 149 142 133 126 121 113 93 67 26 6 13 2 355 354 350 346 345 342
220 221 221 219 208 201 204 207 214 221 216 201 201 213 206 203 216 212 218 203 189 212 177 157 150 143 137 140 141 141 139 0 336 339 349 1 354 353 349 346 344 342 341
222 221 219 217 214 207 209 210 209 218 206 213 209 220 212 198 206 198 191 184 180 183 160 146 136 139 137 158 177 183 189 257 311 324 356 350 346 348 347 346 344 342 341
220 219 218 216 215 210 205 207 209 202 225 201 183 197 181 184 183 180 177 176 171 165 157 146 137 131 121 114 114 132 105 60 344 322 318 338 343 348 349 347 343 343 342
219 217 217 214 212 209 212 214 221 207 188 190 186 180 177 179 173 172 174 171 169 161 150 134 115 104 92 89 82 66 58 37 13 335 331 338 349 353 351 348 344 344 342
217 216 213 211 208 207 204 205 196 195 202 189 181 176 180 176 174 174 174 170 166 155 146 129 114 102 86 67 54 50 32 20 9 1 344 344 347 352 349 344 342 343 343
213 212 212 210 207 207 212 213 212 203 200 185 183 178 174 177 176 175 172 169 164 156 142 131 118 103 84 66 57 45 32 24 12 6 354 345 342 341 342 343 341 343 339